| time (UTC) | temp C | wind direction | speed KPH | gust KPH | rain 1hr cm | rain 24hr cm | rain mn cm | humidity % | barometer mb |
| 20260508165253 | 22 | 37 | 0.0 | 3.2 | 0.00 | 0.00 | 0.00 | 41 | 1056.2 |
| 20260508164749 | 22 | 1 | 0.0 | 0.0 | 0.00 | 0.00 | 0.00 | 45 | 1056.1 |
| 20260508164246 | 22 | 9 | 0.0 | 3.2 | 0.00 | 0.00 | 0.00 | 43 | 1056.2 |
| 20260508163744 | 21 | 296 | 0.0 | 1.6 | 0.00 | 0.00 | 0.00 | 45 | 1056.4 |
| 20260508163241 | 21 | 17 | 0.0 | 3.2 | 0.00 | 0.00 | 0.00 | 45 | 1056.4 |
| 20260508162731 | 22 | 354 | 0.0 | 0.0 | 0.00 | 0.00 | 0.00 | 55 | 1056.4 |
| 20260508162228 | 22 | 14 | 0.0 | 1.6 | 0.00 | 0.00 | 0.00 | 47 | 1056.4 |
| 20260508161725 | 22 | 345 | 0.0 | 0.0 | 0.00 | 0.00 | 0.00 | 52 | 1056.7 |
| 20260508161223 | 20 | 32 | 0.0 | 0.0 | 0.00 | 0.00 | 0.00 | 46 | 1056.5 |
| 20260508160721 | 22 | 28 | 0.0 | 1.6 | 0.00 | 0.00 | 0.00 | 52 | 1056.8 |
| 20260508160219 | 20 | 339 | 0.0 | 1.6 | 0.00 | 0.00 | 0.00 | 52 | 1057.0 |
| 20260508155715 | 20 | 47 | 0.0 | 1.6 | 0.00 | 0.00 | 0.00 | 52 | 1057.0 |
| 20260508155212 | 19 | 282 | 0.0 | 1.6 | 0.00 | 0.00 | 0.00 | 50 | 1057.1 |
| 20260508154709 | 18 | 237 | 0.0 | 0.0 | 0.00 | 0.00 | 0.00 | 57 | 1057.1 |
| 20260508154206 | 18 | 277 | 0.0 | 3.2 | 0.00 | 0.00 | 0.00 | 57 | 1057.3 |
| 20260508153703 | 17 | 27 | 1.6 | 3.2 | 0.00 | 0.00 | 0.00 | 55 | 1057.0 |
| 20260508153200 | 18 | 357 | 0.0 | 0.0 | 0.00 | 0.00 | 0.00 | 65 | 1057.3 |
| 20260508152656 | 17 | 43 | 0.0 | 0.0 | 0.00 | 0.00 | 0.00 | 61 | 1057.3 |
| 20260508152152 | 17 | 17 | 1.6 | 1.6 | 0.00 | 0.00 | 0.00 | 63 | 1057.4 |
| 20260508151649 | 17 | 22 | 0.0 | 0.0 | 0.00 | 0.00 | 0.00 | 62 | 1057.3 |
| 20260508151146 | 17 | 14 | 0.0 | 0.0 | 0.00 | 0.00 | 0.00 | 63 | 1057.3 |
| 20260508150643 | 17 | 291 | 0.0 | 1.6 | 0.00 | 0.00 | 0.00 | 64 | 1057.3 |
| 20260508150139 | 16 | 47 | 0.0 | 0.0 | 0.00 | 0.00 | 0.00 | 72 | 1057.5 |
| 20260508145635 | 16 | 37 | 0.0 | 0.0 | 0.00 | 0.00 | 0.00 | 69 | 1057.6 |
| 20260508145131 | 16 | 40 | 0.0 | 0.0 | 0.00 | 0.00 | 0.00 | 64 | 1057.4 |
| 20260508144629 | 16 | 359 | 0.0 | 1.6 | 0.00 | 0.00 | 0.00 | 68 | 1057.5 |
| 20260508144127 | 16 | 35 | 0.0 | 0.0 | 0.00 | 0.00 | 0.00 | 65 | 1057.6 |
| 20260508143624 | 16 | 13 | 0.0 | 0.0 | 0.00 | 0.00 | 0.00 | 67 | 1057.5 |
| 20260508143120 | 16 | 352 | 0.0 | 0.0 | 0.00 | 0.00 | 0.00 | 66 | 1057.5 |
| 20260508142617 | 15 | 11 | 0.0 | 0.0 | 0.00 | 0.00 | 0.00 | 69 | 1057.4 |
| 20260508142114 | 15 | 24 | 0.0 | 1.6 | 0.00 | 0.00 | 0.00 | 69 | 1057.5 |
| 20260508141610 | 15 | 46 | 0.0 | 1.6 | 0.00 | 0.00 | 0.00 | 71 | 1057.5 |
| 20260508141108 | 15 | 62 | 0.0 | 0.0 | 0.00 | 0.00 | 0.00 | 73 | 1057.5 |
| 20260508140605 | 15 | 52 | 0.0 | 0.0 | 0.00 | 0.00 | 0.00 | 79 | 1057.5 |
| 20260508135557 | 14 | 60 | 0.0 | 0.0 | 0.00 | 0.00 | 0.00 | 81 | 1057.1 |
| 20260508135053 | 14 | 51 | 0.0 | 0.0 | 0.00 | 0.00 | 0.00 | 82 | 1057.4 |
| 20260508134550 | 14 | 44 | 0.0 | 0.0 | 0.00 | 0.00 | 0.00 | 81 | 1057.4 |
| 20260508134047 | 13 | 26 | 0.0 | 0.0 | 0.00 | 0.00 | 0.00 | 85 | 1057.3 |
| 20260508133544 | 13 | 31 | 0.0 | 0.0 | 0.00 | 0.00 | 0.00 | 88 | 1057.4 |
| 20260508133042 | 12 | 33 | 0.0 | 0.0 | 0.00 | 0.00 | 0.00 | 87 | 1057.3 |
| 20260508132539 | 12 | 42 | 0.0 | 0.0 | 0.00 | 0.00 | 0.00 | 93 | 1057.5 |
| 20260508132036 | 11 | 52 | 0.0 | 0.0 | 0.00 | 0.00 | 0.00 | 99 | 1057.4 |
| 20260508131531 | 11 | 55 | 0.0 | 0.0 | 0.00 | 0.00 | 0.00 | 99 | 1057.0 |
| 20260508131028 | 11 | 57 | 0.0 | 0.0 | 0.00 | 0.00 | 0.00 | 99 | 1057.0 |
| 20260508130525 | 11 | 60 | 0.0 | 0.0 | 0.00 | 0.00 | 0.00 | 99 | 1057.3 |
| 20260508130021 | 11 | 58 | 0.0 | 0.0 | 0.00 | 0.00 | 0.00 | 99 | 1057.3 |
| 20260508125517 | 11 | 62 | 0.0 | 0.0 | 0.00 | 0.00 | 0.00 | 99 | 1057.3 |
| 20260508125015 | 11 | 64 | 0.0 | 0.0 | 0.00 | 0.00 | 0.00 | 99 | 1057.3 |
| 20260508124513 | 10 | 65 | 0.0 | 0.0 | 0.00 | 0.00 | 0.00 | 99 | 1057.0 |
| 20260508124009 | 10 | 63 | 0.0 | 0.0 | 0.00 | 0.00 | 0.00 | 99 | 1057.0 |
| 20260508123503 | 10 | 69 | 0.0 | 0.0 | 0.00 | 0.00 | 0.00 | 99 | 1057.1 |
| 20260508122959 | 10 | 69 | 0.0 | 0.0 | 0.00 | 0.00 | 0.00 | 99 | 1057.3 |
| 20260508122456 | 10 | 68 | 0.0 | 0.0 | 0.00 | 0.00 | 0.00 | 99 | 1057.0 |
| 20260508121953 | 10 | 51 | 0.0 | 0.0 | 0.00 | 0.00 | 0.00 | 99 | 1056.8 |
| 20260508121451 | 10 | 47 | 0.0 | 0.0 | 0.00 | 0.00 | 0.00 | 99 | 1056.8 |
| 20260508120948 | 9 | 46 | 0.0 | 0.0 | 0.00 | 0.00 | 0.00 | 99 | 1056.8 |
| 20260508120446 | 8 | 44 | 0.0 | 0.0 | 0.00 | 0.00 | 0.00 | 99 | 1056.6 |
| 20260508115944 | 8 | 49 | 0.0 | 0.0 | 0.00 | 0.00 | 0.00 | 99 | 1056.7 |
| 20260508115441 | 7 | 46 | 0.0 | 0.0 | 0.00 | 0.00 | 0.00 | 99 | 1056.5 |
| 20260508114938 | 7 | 47 | 0.0 | 0.0 | 0.00 | 0.00 | 0.00 | 99 | 1056.3 |
| 20260508114435 | 7 | 46 | 0.0 | 0.0 | 0.00 | 0.00 | 0.00 | 99 | 1056.4 |
| 20260508113931 | 6 | 46 | 0.0 | 0.0 | 0.00 | 0.00 | 0.00 | 99 | 1056.3 |
| 20260508113429 | 6 | 46 | 0.0 | 0.0 | 0.00 | 0.00 | 0.00 | 99 | 1056.1 |
| 20260508112925 | 6 | 46 | 0.0 | 0.0 | 0.00 | 0.00 | 0.00 | 99 | 1055.9 |
| 20260508112422 | 6 | 46 | 0.0 | 0.0 | 0.00 | 0.00 | 0.00 | 99 | 1056.1 |
| 20260508111919 | 6 | 46 | 0.0 | 0.0 | 0.00 | 0.00 | 0.00 | 99 | 1056.1 |
| 20260508111416 | 6 | 45 | 0.0 | 0.0 | 0.00 | 0.00 | 0.00 | 99 | 1056.0 |
| 20260508110913 | 6 | 45 | 0.0 | 0.0 | 0.00 | 0.00 | 0.00 | 99 | 1055.9 |
| 20260508110411 | 5 | 45 | 0.0 | 0.0 | 0.00 | 0.00 | 0.00 | 99 | 1055.7 |
| 20260508105910 | 5 | 44 | 0.0 | 0.0 | 0.00 | 0.00 | 0.00 | 99 | 1055.6 |
| 20260508105407 | 5 | 44 | 0.0 | 0.0 | 0.00 | 0.00 | 0.00 | 99 | 1055.7 |
| 20260508104904 | 5 | 44 | 0.0 | 0.0 | 0.00 | 0.00 | 0.00 | 99 | 1055.5 |
| 20260508104402 | 5 | 43 | 0.0 | 0.0 | 0.00 | 0.00 | 0.00 | 99 | 1055.3 |
| 20260508103858 | 5 | 45 | 0.0 | 0.0 | 0.00 | 0.00 | 0.00 | 99 | 1055.2 |
| 20260508103355 | 5 | 46 | 0.0 | 0.0 | 0.00 | 0.00 | 0.00 | 99 | 1055.1 |
| 20260508102853 | 5 | 46 | 0.0 | 0.0 | 0.00 | 0.00 | 0.00 | 99 | 1055.1 |
| 20260508102351 | 5 | 46 | 0.0 | 0.0 | 0.00 | 0.00 | 0.00 | 99 | 1055.0 |
| 20260508101848 | 5 | 45 | 0.0 | 0.0 | 0.00 | 0.00 | 0.00 | 99 | 1054.8 |
| 20260508101345 | 5 | 46 | 0.0 | 0.0 | 0.00 | 0.00 | 0.00 | 99 | 1054.8 |
| 20260508100843 | 6 | 46 | 0.0 | 0.0 | 0.00 | 0.00 | 0.00 | 99 | 1055.0 |
| 20260508100341 | 6 | 46 | 0.0 | 0.0 | 0.00 | 0.00 | 0.00 | 99 | 1054.9 |
| 20260508095836 | 6 | 45 | 0.0 | 0.0 | 0.00 | 0.00 | 0.00 | 99 | 1054.8 |
| 20260508095335 | 6 | 45 | 0.0 | 0.0 | 0.00 | 0.00 | 0.00 | 99 | 1054.8 |
| 20260508094831 | 6 | 46 | 0.0 | 0.0 | 0.00 | 0.00 | 0.00 | 99 | 1054.6 |
| 20260508094328 | 6 | 45 | 0.0 | 0.0 | 0.00 | 0.00 | 0.00 | 99 | 1054.6 |
| 20260508093825 | 6 | 42 | 0.0 | 0.0 | 0.00 | 0.00 | 0.00 | 99 | 1054.6 |
| 20260508093322 | 6 | 42 | 0.0 | 0.0 | 0.00 | 0.00 | 0.00 | 99 | 1054.6 |
| 20260508092820 | 6 | 42 | 0.0 | 0.0 | 0.00 | 0.00 | 0.00 | 99 | 1054.5 |
| 20260508092318 | 6 | 44 | 0.0 | 0.0 | 0.00 | 0.00 | 0.00 | 99 | 1054.5 |
| 20260508091816 | 6 | 43 | 0.0 | 0.0 | 0.00 | 0.00 | 0.00 | 99 | 1054.5 |
| 20260508091312 | 6 | 43 | 0.0 | 0.0 | 0.00 | 0.00 | 0.00 | 99 | 1054.6 |
| 20260508090810 | 6 | 43 | 0.0 | 0.0 | 0.00 | 0.00 | 0.00 | 99 | 1054.5 |
| 20260508090308 | 6 | 43 | 0.0 | 0.0 | 0.00 | 0.00 | 0.00 | 99 | 1054.6 |
| 20260508085803 | 6 | 43 | 0.0 | 0.0 | 0.00 | 0.00 | 0.00 | 99 | 1054.4 |
| 20260508085300 | 6 | 43 | 0.0 | 0.0 | 0.00 | 0.00 | 0.00 | 99 | 1054.3 |
| 20260508084756 | 6 | 44 | 0.0 | 0.0 | 0.00 | 0.00 | 0.00 | 99 | 1054.5 |
| 20260508084254 | 6 | 43 | 0.0 | 0.0 | 0.00 | 0.00 | 0.00 | 99 | 1054.3 |
| 20260508083751 | 6 | 43 | 0.0 | 0.0 | 0.00 | 0.00 | 0.00 | 99 | 1054.6 |
| 20260508083249 | 6 | 43 | 0.0 | 0.0 | 0.00 | 0.00 | 0.00 | 99 | 1054.4 |
| 20260508082748 | 7 | 43 | 0.0 | 0.0 | 0.00 | 0.00 | 0.00 | 99 | 1054.5 |
| 20260508082246 | 7 | 43 | 0.0 | 0.0 | 0.00 | 0.00 | 0.00 | 99 | 1054.4 |
| 20260508081743 | 7 | 43 | 0.0 | 0.0 | 0.00 | 0.00 | 0.00 | 99 | 1054.3 |
| 20260508081240 | 7 | 43 | 0.0 | 0.0 | 0.00 | 0.00 | 0.00 | 99 | 1054.2 |
| 20260508080737 | 7 | 43 | 0.0 | 0.0 | 0.00 | 0.00 | 0.00 | 99 | 1054.2 |
| 20260508080235 | 7 | 42 | 0.0 | 0.0 | 0.00 | 0.00 | 0.00 | 99 | 1054.1 |
| 20260508075731 | 7 | 42 | 0.0 | 0.0 | 0.00 | 0.00 | 0.00 | 99 | 1054.1 |
| 20260508075228 | 7 | 42 | 0.0 | 0.0 | 0.00 | 0.00 | 0.00 | 99 | 1054.0 |
| 20260508074726 | 7 | 42 | 0.0 | 0.0 | 0.00 | 0.00 | 0.00 | 99 | 1054.0 |
| 20260508074224 | 7 | 42 | 0.0 | 0.0 | 0.00 | 0.00 | 0.00 | 99 | 1053.8 |
| 20260508073720 | 7 | 42 | 0.0 | 0.0 | 0.00 | 0.00 | 0.00 | 99 | 1054.0 |
| 20260508073218 | 7 | 42 | 0.0 | 0.0 | 0.00 | 0.00 | 0.00 | 99 | 1054.0 |
| 20260508072714 | 7 | 42 | 0.0 | 0.0 | 0.00 | 0.00 | 0.00 | 99 | 1054.0 |
| 20260508072211 | 7 | 42 | 0.0 | 0.0 | 0.00 | 0.00 | 0.00 | 99 | 1054.0 |
| 20260508071708 | 7 | 42 | 0.0 | 0.0 | 0.00 | 0.00 | 0.00 | 99 | 1053.8 |
| 20260508071207 | 7 | 42 | 0.0 | 0.0 | 0.00 | 0.00 | 0.00 | 99 | 1053.8 |
| 20260508070703 | 7 | 42 | 0.0 | 0.0 | 0.00 | 0.00 | 0.00 | 99 | 1053.8 |
| 20260508070202 | 7 | 44 | 0.0 | 0.0 | 0.00 | 0.00 | 0.00 | 99 | 1054.0 |
| 20260508065659 | 7 | 45 | 0.0 | 0.0 | 0.00 | 0.00 | 0.00 | 99 | 1053.6 |
| 20260508065157 | 7 | 45 | 0.0 | 0.0 | 0.00 | 0.00 | 0.00 | 99 | 1053.6 |
| 20260508064654 | 8 | 46 | 0.0 | 0.0 | 0.00 | 0.00 | 0.00 | 99 | 1053.8 |
| 20260508064152 | 8 | 46 | 0.0 | 0.0 | 0.00 | 0.00 | 0.00 | 99 | 1053.7 |
| 20260508063649 | 7 | 36 | 0.0 | 0.0 | 0.00 | 0.00 | 0.00 | 99 | 1053.6 |
| 20260508063147 | 8 | 36 | 0.0 | 0.0 | 0.00 | 0.00 | 0.00 | 99 | 1053.6 |
| 20260508062644 | 8 | 27 | 0.0 | 0.0 | 0.00 | 0.00 | 0.00 | 99 | 1053.4 |
| 20260508062141 | 8 | 27 | 0.0 | 0.0 | 0.00 | 0.00 | 0.00 | 99 | 1053.8 |
| 20260508061638 | 8 | 26 | 0.0 | 0.0 | 0.00 | 0.00 | 0.00 | 99 | 1053.7 |
| 20260508061136 | 8 | 28 | 0.0 | 0.0 | 0.00 | 0.00 | 0.00 | 99 | 1053.6 |
| 20260508060632 | 8 | 28 | 0.0 | 0.0 | 0.00 | 0.00 | 0.00 | 99 | 1053.7 |
| 20260508060130 | 8 | 27 | 0.0 | 0.0 | 0.00 | 0.00 | 0.00 | 99 | 1053.7 |
| 20260508055625 | 8 | 28 | 0.0 | 0.0 | 0.00 | 0.00 | 0.00 | 99 | 1053.6 |
| 20260508055122 | 8 | 28 | 0.0 | 0.0 | 0.00 | 0.00 | 0.00 | 99 | 1053.5 |
| 20260508054619 | 8 | 27 | 0.0 | 0.0 | 0.00 | 0.00 | 0.00 | 99 | 1053.4 |
| 20260508054116 | 8 | 28 | 0.0 | 0.0 | 0.00 | 0.00 | 0.00 | 99 | 1053.6 |
| 20260508053613 | 8 | 28 | 0.0 | 0.0 | 0.00 | 0.00 | 0.00 | 99 | 1053.4 |
| 20260508053111 | 8 | 27 | 0.0 | 0.0 | 0.00 | 0.00 | 0.00 | 99 | 1053.6 |
| 20260508052608 | 8 | 28 | 0.0 | 0.0 | 0.00 | 0.00 | 0.00 | 99 | 1053.5 |
| 20260508052105 | 8 | 29 | 0.0 | 0.0 | 0.00 | 0.00 | 0.00 | 99 | 1053.4 |
| 20260508051601 | 8 | 29 | 0.0 | 0.0 | 0.00 | 0.00 | 0.00 | 99 | 1053.4 |
| 20260508051056 | 8 | 29 | 0.0 | 0.0 | 0.00 | 0.00 | 0.00 | 99 | 1053.3 |
| 20260508050553 | 8 | 29 | 0.0 | 0.0 | 0.00 | 0.00 | 0.00 | 99 | 1053.3 |
| 20260508050050 | 8 | 30 | 0.0 | 0.0 | 0.00 | 0.00 | 0.00 | 99 | 1053.2 |
| 20260508045546 | 8 | 30 | 0.0 | 0.0 | 0.00 | 0.00 | 0.00 | 99 | 1053.1 |
| 20260508045044 | 8 | 30 | 0.0 | 0.0 | 0.00 | 0.00 | 0.00 | 99 | 1053.2 |
| 20260508044541 | 8 | 30 | 0.0 | 0.0 | 0.00 | 0.00 | 0.00 | 99 | 1053.4 |
| 20260508044037 | 8 | 30 | 0.0 | 0.0 | 0.00 | 0.00 | 0.00 | 99 | 1053.3 |
| 20260508043534 | 8 | 30 | 0.0 | 0.0 | 0.00 | 0.00 | 0.00 | 99 | 1053.2 |
| 20260508043031 | 9 | 30 | 0.0 | 0.0 | 0.00 | 0.00 | 0.00 | 99 | 1053.0 |
| 20260508042528 | 8 | 30 | 0.0 | 0.0 | 0.00 | 0.00 | 0.00 | 99 | 1053.1 |
| 20260508042025 | 8 | 30 | 0.0 | 0.0 | 0.00 | 0.00 | 0.00 | 99 | 1053.4 |
| 20260508041521 | 8 | 30 | 0.0 | 0.0 | 0.00 | 0.00 | 0.00 | 99 | 1053.3 |
| 20260508041018 | 9 | 30 | 0.0 | 0.0 | 0.00 | 0.00 | 0.00 | 99 | 1053.2 |
| 20260508040515 | 8 | 30 | 0.0 | 0.0 | 0.00 | 0.00 | 0.00 | 99 | 1053.2 |
| 20260508040013 | 8 | 30 | 0.0 | 0.0 | 0.00 | 0.41 | 0.41 | 99 | 1053.2 |
| 20260508035509 | 9 | 30 | 0.0 | 0.0 | 0.00 | 0.41 | 0.41 | 99 | 1053.1 |
| 20260508035006 | 9 | 30 | 0.0 | 0.0 | 0.00 | 0.41 | 0.41 | 99 | 1053.0 |
| 20260508034504 | 9 | 30 | 0.0 | 0.0 | 0.00 | 0.41 | 0.41 | 99 | 1053.3 |
| 20260508034000 | 9 | 30 | 0.0 | 0.0 | 0.00 | 0.41 | 0.41 | 99 | 1053.0 |
| 20260508033458 | 9 | 30 | 0.0 | 0.0 | 0.00 | 0.41 | 0.41 | 99 | 1053.1 |
| 20260508032955 | 10 | 30 | 0.0 | 0.0 | 0.00 | 0.41 | 0.41 | 99 | 1053.1 |
| 20260508032452 | 10 | 30 | 0.0 | 0.0 | 0.00 | 0.41 | 0.41 | 99 | 1053.1 |
| 20260508031949 | 10 | 30 | 0.0 | 0.0 | 0.00 | 0.41 | 0.41 | 99 | 1053.2 |
| 20260508031447 | 10 | 30 | 0.0 | 0.0 | 0.00 | 0.41 | 0.41 | 99 | 1053.1 |
| 20260508030942 | 10 | 30 | 0.0 | 0.0 | 0.00 | 0.41 | 0.41 | 99 | 1053.0 |
| 20260508030440 | 10 | 30 | 0.0 | 0.0 | 0.00 | 0.41 | 0.41 | 99 | 1053.0 |
| 20260508025937 | 10 | 30 | 0.0 | 0.0 | 0.00 | 0.41 | 0.41 | 99 | 1053.2 |
| 20260508025433 | 10 | 30 | 0.0 | 0.0 | 0.00 | 0.41 | 0.41 | 99 | 1052.9 |
| 20260508024930 | 10 | 30 | 0.0 | 0.0 | 0.00 | 0.41 | 0.41 | 99 | 1052.8 |
| 20260508024427 | 10 | 30 | 0.0 | 0.0 | 0.00 | 0.41 | 0.41 | 99 | 1052.7 |
| 20260508023923 | 10 | 30 | 0.0 | 0.0 | 0.00 | 0.41 | 0.41 | 99 | 1052.6 |
| 20260508023420 | 11 | 30 | 0.0 | 0.0 | 0.00 | 0.41 | 0.41 | 99 | 1052.6 |
| 20260508022918 | 11 | 30 | 0.0 | 0.0 | 0.00 | 0.41 | 0.41 | 99 | 1052.5 |
| 20260508022413 | 11 | 30 | 0.0 | 0.0 | 0.00 | 0.41 | 0.41 | 98 | 1052.6 |
| 20260508021910 | 11 | 31 | 0.0 | 0.0 | 0.00 | 0.41 | 0.41 | 99 | 1052.6 |
| 20260508021406 | 11 | 31 | 0.0 | 0.0 | 0.00 | 0.41 | 0.41 | 98 | 1052.4 |
| 20260508020902 | 11 | 31 | 0.0 | 0.0 | 0.00 | 0.41 | 0.41 | 98 | 1052.2 |
| 20260508020400 | 11 | 33 | 0.0 | 0.0 | 0.00 | 0.41 | 0.41 | 97 | 1052.3 |
| 20260508015857 | 12 | 33 | 0.0 | 0.0 | 0.00 | 0.41 | 0.41 | 97 | 1052.1 |
| 20260508015355 | 12 | 33 | 0.0 | 0.0 | 0.00 | 0.41 | 0.41 | 95 | 1052.0 |
| 20260508014851 | 12 | 33 | 0.0 | 0.0 | 0.00 | 0.41 | 0.41 | 95 | 1052.0 |
| 20260508014348 | 12 | 33 | 0.0 | 0.0 | 0.00 | 0.41 | 0.41 | 93 | 1052.1 |
| 20260508013844 | 12 | 32 | 0.0 | 0.0 | 0.00 | 0.41 | 0.41 | 94 | 1051.7 |
| 20260508013340 | 12 | 32 | 0.0 | 0.0 | 0.00 | 0.41 | 0.41 | 92 | 1051.5 |
| 20260508012838 | 13 | 33 | 0.0 | 0.0 | 0.00 | 0.41 | 0.41 | 91 | 1051.7 |
| 20260508012335 | 13 | 33 | 0.0 | 0.0 | 0.00 | 0.41 | 0.41 | 90 | 1051.4 |
| 20260508011832 | 13 | 33 | 0.0 | 0.0 | 0.00 | 0.41 | 0.41 | 88 | 1051.4 |
| 20260508011330 | 13 | 33 | 0.0 | 0.0 | 0.00 | 0.41 | 0.41 | 86 | 1051.5 |
| 20260508010821 | 14 | 33 | 0.0 | 0.0 | 0.00 | 0.41 | 0.41 | 84 | 1051.1 |
| 20260508010319 | 14 | 34 | 0.0 | 0.0 | 0.00 | 0.41 | 0.41 | 81 | 1051.0 |
| 20260508005816 | 14 | 33 | 0.0 | 0.0 | 0.00 | 0.41 | 0.41 | 81 | 1051.3 |
| 20260508005313 | 15 | 23 | 0.0 | 0.0 | 0.00 | 0.41 | 0.41 | 81 | 1051.0 |
| 20260508004809 | 15 | 24 | 0.0 | 0.0 | 0.00 | 0.41 | 0.41 | 80 | 1051.0 |
| 20260508004305 | 15 | 17 | 0.0 | 3.2 | 0.00 | 0.41 | 0.41 | 78 | 1050.8 |
| 20260508003801 | 15 | 1 | 0.0 | 0.0 | 0.00 | 0.41 | 0.41 | 78 | 1050.7 |
| 20260508003259 | 16 | 350 | 0.0 | 0.0 | 0.00 | 0.41 | 0.41 | 76 | 1050.8 |
| 20260508002755 | 16 | 349 | 0.0 | 4.8 | 0.00 | 0.41 | 0.41 | 76 | 1050.9 |
| 20260508002253 | 16 | 5 | 0.0 | 1.6 | 0.00 | 0.41 | 0.41 | 76 | 1050.3 |
| 20260508001748 | 16 | 210 | 0.0 | 1.6 | 0.00 | 0.41 | 0.41 | 77 | 1050.6 |
| 20260508001244 | 16 | 343 | 0.0 | 3.2 | 0.00 | 0.41 | 0.41 | 75 | 1050.8 |
| 20260508000741 | 17 | 318 | 0.0 | 1.6 | 0.00 | 0.41 | 0.41 | 74 | 1050.7 |
| 20260508000238 | 17 | 348 | 1.6 | 3.2 | 0.00 | 0.41 | 0.41 | 73 | 1050.6 |
| 20260507235734 | 17 | 348 | 1.6 | 3.2 | 0.00 | 0.41 | 0.41 | 73 | 1050.6 |
| 20260507235232 | 18 | 356 | 0.0 | 4.8 | 0.00 | 0.41 | 0.41 | 74 | 1050.4 |
| 20260507234729 | 18 | 17 | 1.6 | 1.6 | 0.00 | 0.41 | 0.41 | 72 | 1050.8 |
| 20260507234225 | 18 | 289 | 1.6 | 4.8 | 0.00 | 0.41 | 0.41 | 71 | 1050.4 |
| 20260507233722 | 18 | 35 | 0.0 | 3.2 | 0.00 | 0.41 | 0.41 | 73 | 1050.4 |
| 20260507233220 | 18 | 301 | 3.2 | 6.4 | 0.00 | 0.41 | 0.41 | 72 | 1050.4 |
| 20260507232716 | 18 | 333 | 0.0 | 3.2 | 0.00 | 0.41 | 0.41 | 75 | 1050.1 |
| 20260507232214 | 18 | 288 | 1.6 | 4.8 | 0.00 | 0.41 | 0.41 | 75 | 1049.9 |
| 20260507231710 | 18 | 207 | 0.0 | 1.6 | 0.00 | 0.41 | 0.41 | 76 | 1049.7 |
| 20260507231207 | 18 | 254 | 0.0 | 9.7 | 0.00 | 0.41 | 0.41 | 77 | 1050.0 |
| 20260507230703 | 18 | 338 | 1.6 | 3.2 | 0.00 | 0.41 | 0.41 | 85 | 1049.6 |
| 20260507230201 | 18 | 1 | 0.0 | 0.0 | 0.00 | 0.41 | 0.41 | 97 | 1049.6 |
| 20260507225655 | 18 | 242 | 0.0 | 0.0 | 0.00 | 0.41 | 0.41 | 98 | 1049.6 |
| 20260507225152 | 18 | 281 | 1.6 | 3.2 | 0.00 | 0.41 | 0.41 | 96 | 1049.3 |
| 20260507224647 | 18 | 11 | 0.0 | 0.0 | 0.00 | 0.41 | 0.41 | 97 | 1049.3 |
| 20260507224144 | 18 | 49 | 0.0 | 0.0 | 0.00 | 0.41 | 0.41 | 97 | 1049.0 |
| 20260507223640 | 18 | 349 | 0.0 | 0.0 | 0.00 | 0.41 | 0.41 | 96 | 1049.0 |
| 20260507223137 | 19 | 38 | 0.0 | 3.2 | 0.00 | 0.41 | 0.41 | 95 | 1048.8 |
| 20260507222634 | 19 | 127 | 0.0 | 0.0 | 0.00 | 0.41 | 0.41 | 94 | 1048.7 |
| 20260507222130 | 20 | 131 | 0.0 | 0.0 | 0.00 | 0.41 | 0.41 | 93 | 1048.7 |
| 20260507221627 | 20 | 135 | 0.0 | 0.0 | 0.00 | 0.41 | 0.41 | 93 | 1048.8 |
| 20260507221123 | 21 | 120 | 0.0 | 0.0 | 0.00 | 0.41 | 0.41 | 89 | 1048.5 |
| 20260507220621 | 21 | 133 | 0.0 | 0.0 | 0.00 | 0.41 | 0.41 | 88 | 1048.4 |
| 20260507220118 | 20 | 126 | 0.0 | 0.0 | 0.00 | 0.41 | 0.41 | 90 | 1048.5 |
| 20260507215614 | 20 | 145 | 0.0 | 1.6 | 0.00 | 0.41 | 0.41 | 92 | 1048.5 |
| 20260507215112 | 21 | 210 | 0.0 | 0.0 | 0.00 | 0.41 | 0.41 | 88 | 1048.4 |
| 20260507214609 | 21 | 14 | 0.0 | 1.6 | 0.00 | 0.41 | 0.41 | 88 | 1048.3 |
| 20260507214105 | 21 | 30 | 0.0 | 3.2 | 0.00 | 0.41 | 0.41 | 87 | 1048.0 |
| 20260507213601 | 21 | 324 | 0.0 | 1.6 | 0.00 | 0.41 | 0.41 | 87 | 1048.0 |
| 20260507213059 | 20 | 301 | 0.0 | 0.0 | 0.00 | 0.41 | 0.41 | 89 | 1048.0 |
| 20260507212554 | 21 | 28 | 0.0 | 1.6 | 0.00 | 0.41 | 0.41 | 88 | 1047.8 |
| 20260507212052 | 20 | 181 | 0.0 | 0.0 | 0.00 | 0.41 | 0.41 | 89 | 1047.8 |
| 20260507211548 | 18 | 304 | 0.0 | 1.6 | 0.00 | 0.41 | 0.41 | 93 | 1047.7 |
| 20260507211044 | 20 | 313 | 0.0 | 1.6 | 0.00 | 0.41 | 0.41 | 91 | 1047.8 |
| 20260507210542 | 20 | 28 | 1.6 | 3.2 | 0.00 | 0.41 | 0.41 | 90 | 1047.9 |
| 20260507210038 | 21 | 73 | 0.0 | 4.8 | 0.00 | 0.41 | 0.41 | 90 | 1047.6 |
| 20260507205535 | 21 | 349 | 0.0 | 3.2 | 0.00 | 0.41 | 0.41 | 89 | 1047.5 |
| 20260507205031 | 20 | 10 | 0.0 | 0.0 | 0.00 | 0.41 | 0.41 | 92 | 1047.7 |
| 20260507204528 | 20 | 0 | 0.0 | 0.0 | 0.00 | 0.41 | 0.41 | 94 | 1047.3 |
| 20260507204026 | 20 | 62 | 0.0 | 1.6 | 0.00 | 0.41 | 0.41 | 94 | 1047.4 |
| 20260507203523 | 21 | 318 | 0.0 | 0.0 | 0.00 | 0.41 | 0.41 | 92 | 1047.4 |
| 20260507203020 | 21 | 265 | 1.6 | 4.8 | 0.00 | 0.41 | 0.41 | 93 | 1047.4 |
| 20260507202516 | 21 | 59 | 1.6 | 1.6 | 0.00 | 0.41 | 0.41 | 94 | 1047.3 |
| 20260507202012 | 21 | 30 | 0.0 | 1.6 | 0.00 | 0.41 | 0.41 | 93 | 1047.0 |
| 20260507201508 | 23 | 121 | 0.0 | 4.8 | 0.00 | 0.41 | 0.41 | 90 | 1046.8 |
| 20260507201004 | 25 | 214 | 0.0 | 0.0 | 0.00 | 0.41 | 0.41 | 86 | 1046.8 |
| 20260507200500 | 23 | 206 | 0.0 | 0.0 | 0.00 | 0.41 | 0.41 | 81 | 1046.6 |
| 20260507195956 | 25 | 214 | 0.0 | 0.0 | 0.00 | 0.41 | 0.41 | 84 | 1046.7 |
| 20260507195454 | 25 | 205 | 0.0 | 0.0 | 0.00 | 0.41 | 0.41 | 84 | 1046.4 |
| 20260507194951 | 26 | 212 | 0.0 | 0.0 | 0.00 | 0.41 | 0.41 | 79 | 1046.6 |
| 20260507194447 | 26 | 207 | 0.0 | 0.0 | 0.00 | 0.41 | 0.41 | 83 | 1046.7 |
| 20260507193943 | 23 | 209 | 0.0 | 0.0 | 0.00 | 0.41 | 0.41 | 83 | 1046.8 |
| 20260507193441 | 23 | 207 | 0.0 | 0.0 | 0.00 | 0.41 | 0.41 | 84 | 1046.7 |
| 20260507192937 | 25 | 31 | 0.0 | 0.0 | 0.00 | 0.41 | 0.41 | 82 | 1046.7 |
| 20260507192433 | 26 | 23 | 0.0 | 1.6 | 0.00 | 0.41 | 0.41 | 79 | 1046.6 |
| 20260507191931 | 27 | 6 | 0.0 | 1.6 | 0.00 | 0.41 | 0.41 | 77 | 1046.5 |
| 20260507191426 | 27 | 30 | 0.0 | 0.0 | 0.00 | 0.41 | 0.41 | 73 | 1046.5 |
| 20260507190923 | 28 | 152 | 0.0 | 0.0 | 0.00 | 0.41 | 0.41 | 75 | 1046.4 |
| 20260507190421 | 27 | 151 | 0.0 | 0.0 | 0.00 | 0.41 | 0.41 | 76 | 1046.6 |
| 20260507185920 | 25 | 13 | 0.0 | 1.6 | 0.00 | 0.41 | 0.41 | 78 | 1046.6 |
| 20260507185417 | 26 | 47 | 0.0 | 1.6 | 0.00 | 0.41 | 0.41 | 79 | 1046.6 |
| 20260507184913 | 26 | 354 | 0.0 | 0.0 | 0.00 | 0.41 | 0.41 | 80 | 1046.9 |
| 20260507184411 | 26 | 359 | 0.0 | 0.0 | 0.00 | 0.41 | 0.41 | 81 | 1046.7 |
| 20260507183909 | 25 | 75 | 0.0 | 1.6 | 0.00 | 0.41 | 0.41 | 80 | 1046.7 |
| 20260507183405 | 25 | 356 | 0.0 | 0.0 | 0.00 | 0.41 | 0.41 | 78 | 1046.8 |
| 20260507182903 | 26 | 336 | 0.0 | 0.0 | 0.00 | 0.41 | 0.41 | 79 | 1047.0 |
| 20260507182358 | 26 | 307 | 0.0 | 4.8 | 0.00 | 0.41 | 0.41 | 80 | 1047.0 |
| 20260507181855 | 25 | 303 | 0.0 | 0.0 | 0.00 | 0.41 | 0.41 | 79 | 1047.0 |
| 20260507181351 | 26 | 28 | 0.0 | 0.0 | 0.00 | 0.41 | 0.41 | 78 | 1046.9 |
| 20260507180848 | 25 | 26 | 0.0 | 0.0 | 0.00 | 0.41 | 0.41 | 83 | 1047.0 |
| 20260507180344 | 25 | 29 | 0.0 | 0.0 | 0.00 | 0.41 | 0.41 | 80 | 1047.3 |
| 20260507175840 | 25 | 27 | 0.0 | 0.0 | 0.00 | 0.41 | 0.41 | 79 | 1047.2 |
| 20260507175337 | 25 | 359 | 0.0 | 0.0 | 0.00 | 0.41 | 0.41 | 80 | 1047.3 |
| 20260507174835 | 24 | 39 | 0.0 | 0.0 | 0.00 | 0.41 | 0.41 | 79 | 1047.4 |
| 20260507174332 | 26 | 28 | 0.0 | 0.0 | 0.00 | 0.41 | 0.41 | 81 | 1047.4 |
| 20260507173829 | 27 | 35 | 0.0 | 1.6 | 0.00 | 0.41 | 0.41 | 73 | 1047.3 |
| 20260507173326 | 26 | 15 | 0.0 | 0.0 | 0.00 | 0.41 | 0.41 | 72 | 1047.5 |
| 20260507172823 | 27 | 14 | 0.0 | 0.0 | 0.00 | 0.41 | 0.41 | 73 | 1047.2 |
| 20260507172320 | 25 | 25 | 0.0 | 0.0 | 0.00 | 0.41 | 0.41 | 76 | 1047.3 |
| 20260507171815 | 25 | 23 | 0.0 | 0.0 | 0.00 | 0.41 | 0.41 | 81 | 1047.5 |
| 20260507171313 | 23 | 337 | 0.0 | 1.6 | 0.00 | 0.41 | 0.41 | 83 | 1047.7 |
| 20260507170809 | 25 | 342 | 0.0 | 0.0 | 0.00 | 0.41 | 0.41 | 82 | 1047.6 |
| 20260507170306 | 25 | 330 | 0.0 | 0.0 | 0.00 | 0.41 | 0.41 | 80 | 1047.7 |
| 20260507165802 | 25 | 1 | 0.0 | 0.0 | 0.00 | 0.41 | 0.41 | 87 | 1047.9 |